This demonstration page uses our WeatherBlox Daily Observations layout. Learn more.

Left ArrowRight Arrow

Hourly Observations for January 4, 2021

Temp ( °F °C ) Dew Point ( °F °C ) Humidity (%) Winds ( mph kmh ) Pressure ( in mb ) Visibility ( mi km ) Precip ( " mm )
12:53 am 00:53 Clear 33 0.6 21 -6.1 61 61 SW 21 33 29.89 1012 10 16 0.00 0.00
1:53 am 01:53 Clear 32 0 22 -5.6 66 66 SW 21 33 29.92 1013 10 16 0.00 0.00
2:53 am 02:53 Clear 32 0 22 -5.6 66 66 SW 20 31 29.95 1014 10 16 0.00 0.00
3:53 am 03:53 Clear 29 -1.7 21 -6.1 72 72 SW 13 20 29.96 1015 10 16 0.00 0.00
4:53 am 04:53 Clear 30 -1.1 22 -5.6 72 72 SW 15 24 29.96 1015 10 16 0.00 0.00
5:53 am 05:53 Clear 29 -1.7 21 -6.1 72 72 WSW 12 19 29.97 1015 10 16 0.00 0.00
6:53 am 06:53 Clear 29 -1.7 20 -6.7 69 69 WNW 7 11 29.98 1015 10 16 0.00 0.00
7:53 am 07:53 Clear 26 -3.3 19 -7.2 75 75 W 6 9 29.99 1016 10 16 0.00 0.00
8:53 am 08:53 Sunny 27 -2.8 19 -7.2 72 72 W 8 13 29.99 1016 10 16 0.00 0.00
9:53 am 09:53 Sunny 32 0 21 -6.1 64 64 W 6 9 29.96 1015 10 16 0.00 0.00
10:53 am 10:53 Sunny 39 3.9 23 -5 53 53 WSW 7 11 29.93 1014 10 16 0.00 0.00
11:53 am 11:53 Sunny 38 3.3 23 -5 55 55 W 5 7 29.91 1013 10 16 0.00 0.00
12:53 pm 12:53 Sunny 39 3.9 23 -5 53 53 Calm 29.85 1011 10 16 0.00 0.00
1:53 pm 13:53 Sunny 41 5 24 -4.4 51 51 ENE 6 9 29.81 1010 10 16 0.00 0.00
2:53 pm 14:53 Sunny 39 3.9 26 -3.3 60 60 E 10 17 29.79 1009 10 16 0.00 0.00
3:53 pm 15:53 Sunny 35 1.7 26 -3.3 70 70 ENE 9 15 29.78 1008 10 16 0.00 0.00
4:53 pm 16:53 Clear 32 0 26 -3.3 79 79 ENE 9 15 29.75 1008 10 16 0.00 0.00
5:53 pm 17:53 Clear 30 -1.1 25 -3.9 82 82 E 5 7 29.73 1007 10 16 0.00 0.00
6:53 pm 18:53 Clear 31 -0.6 23 -5 72 72 E 7 11 29.70 1006 10 16 0.00 0.00
7:53 pm 19:53 Clear 32 0 21 -6.1 64 64 ENE 7 11 29.68 1005 10 16 0.00 0.00
8:53 pm 20:53 Clear 30 -1.1 22 -5.6 72 72 ENE 7 11 29.65 1004 10 16 0.00 0.00
9:53 pm 21:53 Clear 30 -1.1 23 -5 75 75 ENE 6 9 29.63 1003 10 16 0.00 0.00
10:53 pm 22:53 Partly Cloudy 28 -2.2 23 -5 81 81 E 9 15 29.61 1003 10 16 0.00 0.00
11:53 pm 23:53 Cloudy 31 -0.6 25 -3.9 79 79 ENE 3 6 29.60 1003 10 16 0.00 0.00

Powered by AerisWeather